[[{"header":{"parameterUnit":"m.s-1","parameterCategory":1,"la1":30.2992,"la2":30.254,"lo1":-89.0895,"lo2":-89.0443,"dy":0.0025,"dx":0.0025,"nx":19,"ny":19,"refTime":"2026-05-23T09:00:00:Z","depth":0,"parameterNumber":2,"parameterNumberName":"U-component_of_WINDS"},"data":[0,0,0,0.4758,0.4759,0.4813,0.4813,0.4852,0.4853,0,0,0,0,0,0,0,0,0,0,0,0.4724,0.4724,0.4758,0.4759,0.4813,0.4813,0.4852,0.4853,0,0,0,0,0,0,0,0,0,0,0,0.4724,0.4724,0.4723,0.4759,0.4813,0.4813,0.4852,0.4822,0,0,0,0,0,0,0,0,0,0,0.4775,0.4726,0.4724,0.4723,0.4759,0.4813,0.4813,0.4821,0.4824,0.4815,0,0.4803,0,0.4828,0.4853,0.4853,0,0,0,0.4772,0.4723,0.4754,0.4723,0.4759,0.4812,0.4792,0.4823,0.4826,0.4819,0.4804,0.4806,0.4829,0.4853,0.4853,0.476,0.4759,0,0,0.4769,0.4724,0.4752,0.4755,0.4745,0.479,0.4794,0.4826,0.4806,0.4804,0.4807,0.483,0.4853,0.4854,0.4761,0.4759,0,0,0,0.4751,0.4721,0.4752,0.4753,0.4765,0.4791,0.4795,0.4804,0.4818,0.4808,0.483,0.4854,0.4854,0.4762,0.476,0.4663,0,0,0,0.475,0.4711,0.475,0.4723,0.4764,0.4785,0.4773,0.4816,0.4821,0.483,0.4854,0.4854,0.4763,0.4761,0.4669,0.4624,0,0,0,0.4726,0.4709,0.471,0.472,0.4742,0.4786,0.4802,0.4818,0.4834,0.4853,0.4854,0.4764,0.4762,0.4673,0.4632,0.4585,0,0,0,0.4688,0.4623,0.4708,0.4644,0.4741,0.4726,0.4803,0.4794,0.4799,0.4854,0.4763,0.476,0.4675,0.4637,0.459,0.4536,0.451,0,0,0.4581,0.4608,0.4575,0.4652,0.461,0.4722,0.4666,0.4713,0.4757,0.4756,0.4755,0.4667,0.4632,0.4586,0.4384,0.4363,0,0,0,0.4525,0.45,0.4499,0.4502,0.4538,0.4564,0.4625,0.4643,0.4646,0.4747,0.464,0.4621,0.4596,0.4572,0.4554,0.4535,0.4748,0.4749,0.4749,0.4306,0.4366,0.4314,0.438,0.4383,0.4448,0.4455,0.449,0.4549,0.4523,0.4522,0.4392,0.4363,0.435,0.4329,0.4501,0.45,0.45,0.45,0.4153,0.4126,0.4208,0.4187,0.425,0.4233,0.4294,0.4336,0.4329,0.4397,0.4378,0.4445,0.4325,0.4309,0.4493,0.4494,0.4495,0.4496,0.4496,0.4014,0.4012,0.4036,0.4048,0.405,0.4121,0.411,0.417,0.4225,0.4206,0.4211,0.4213,0.422,0.4205,0.4205,0.4204,0.4204,0.4203,0.4203,0.3859,0.389,0.3874,0.3908,0.3918,0.394,0.4006,0.4017,0.4046,0.4089,0.409,0.415,0.4303,0.4338,0.4196,0.4198,0.4198,0.4199,0.42,0.3677,0.3729,0.3703,0.3714,0.3759,0.3757,0.3835,0.3854,0.3873,0.3865,0.3932,0.4036,0.4068,0.4082,0.4112,0.392,0.392,0.392,0.392,0.3558,0.3582,0.357,0.3583,0.3603,0.367,0.364,0.3691,0.3752,0.3767,0.3805,0.385,0.3863,0.3887,0.3906,0.3935,0.3702,0.3702,0.3702,0.3449,0.3477,0.3439,0.3501,0.3541,0.3574,0.3547,0.3558,0.3639,0.3694,0.378,0.3789,0.3864,0.3885,0.3939,0.3967,0.4021,0,0]},{"header":{"parameterUnit":"m.s-1","parameterCategory":1,"la1":30.2992,"la2":30.254,"lo1":-89.0895,"lo2":-89.0443,"dy":0.0025,"dx":0.0025,"nx":19,"ny":19,"refTime":"2026-05-23T09:00:00:Z","depth":0,"parameterNumber":3,"parameterNumberName":"V-component_of_WINDS"},"data":[0,0,0,-1.2188,-1.2185,-1.2052,-1.2052,-1.1906,-1.1905,0,0,0,0,0,0,0,0,0,0,0,-1.2242,-1.2242,-1.2188,-1.2185,-1.2052,-1.2052,-1.1907,-1.1905,0,0,0,0,0,0,0,0,0,0,0,-1.2243,-1.2242,-1.2242,-1.2185,-1.2052,-1.2051,-1.1907,-1.1998,0,0,0,0,0,0,0,0,0,0,-1.2123,-1.2188,-1.2242,-1.2241,-1.2184,-1.2053,-1.2051,-1.2002,-1.1993,-1.1978,0,-1.1968,0,-1.1935,-1.1897,-1.1897,0,0,0,-1.2174,-1.2197,-1.2147,-1.2241,-1.2183,-1.2053,-1.2109,-1.1997,-1.1986,-1.1965,-1.1966,-1.196,-1.1932,-1.1896,-1.1896,-1.1847,-1.1847,0,0,-1.2181,-1.2227,-1.2155,-1.2141,-1.2163,-1.2113,-1.2105,-1.199,-1.1994,-1.1965,-1.1956,-1.193,-1.1896,-1.1895,-1.1847,-1.1847,0,0,0,-1.221,-1.2232,-1.2185,-1.2147,-1.2122,-1.211,-1.21,-1.1999,-1.1979,-1.1954,-1.1928,-1.1895,-1.1894,-1.1846,-1.1847,-1.1906,0,0,0,-1.2214,-1.2249,-1.2189,-1.2215,-1.2124,-1.2058,-1.2112,-1.1987,-1.1973,-1.1929,-1.1895,-1.1892,-1.1846,-1.1846,-1.1904,-1.1927,0,0,0,-1.2246,-1.2252,-1.2238,-1.2218,-1.2162,-1.2059,-1.2033,-1.1983,-1.1958,-1.1897,-1.1892,-1.1845,-1.1846,-1.1902,-1.1923,-1.1928,0,0,0,-1.2293,-1.2293,-1.224,-1.2229,-1.2164,-1.2097,-1.2033,-1.1981,-1.1936,-1.1894,-1.1846,-1.1847,-1.1901,-1.1921,-1.1926,-1.194,-1.195,0,0,-1.2318,-1.2297,-1.2287,-1.2236,-1.2191,-1.2114,-1.2076,-1.1992,-1.1944,-1.1882,-1.188,-1.1905,-1.1923,-1.1927,-1.1991,-1.2,0,0,0,-1.231,-1.2304,-1.2282,-1.2241,-1.2177,-1.2124,-1.204,-1.2009,-1.1954,-1.1922,-1.1906,-1.1915,-1.1916,-1.1921,-1.1928,-1.1926,-1.1851,-1.1851,-1.1851,-1.241,-1.235,-1.233,-1.2254,-1.2216,-1.213,-1.2093,-1.2036,-1.1986,-1.1984,-1.1965,-1.2011,-1.2019,-1.2024,-1.2023,-1.1967,-1.1968,-1.1968,-1.1968,-1.2441,-1.2423,-1.2357,-1.2314,-1.2251,-1.2214,-1.2132,-1.2098,-1.2055,-1.202,-1.2018,-1.1986,-1.2035,-1.2031,-1.1972,-1.1971,-1.1971,-1.197,-1.197,-1.25,-1.2481,-1.2443,-1.2379,-1.2336,-1.2259,-1.2221,-1.2164,-1.211,-1.2108,-1.2083,-1.2082,-1.2074,-1.21,-1.21,-1.21,-1.2101,-1.2101,-1.2101,-1.2576,-1.2532,-1.2506,-1.2439,-1.2406,-1.2355,-1.227,-1.2236,-1.2184,-1.2146,-1.2145,-1.2096,-1.2051,-1.2041,-1.2103,-1.2103,-1.2102,-1.2102,-1.2102,-1.263,-1.2609,-1.257,-1.2538,-1.2454,-1.2416,-1.2344,-1.228,-1.2244,-1.2227,-1.2179,-1.2154,-1.2129,-1.2123,-1.2114,-1.2191,-1.2191,-1.2191,-1.2191,-1.268,-1.2662,-1.261,-1.2562,-1.2507,-1.2439,-1.2398,-1.2332,-1.2261,-1.2235,-1.2215,-1.2199,-1.2196,-1.2172,-1.2165,-1.2156,-1.2242,-1.2242,-1.2242,-1.2711,-1.2685,-1.2661,-1.2591,-1.2521,-1.2464,-1.2424,-1.2371,-1.2285,-1.2243,-1.2214,-1.2211,-1.2184,-1.2179,-1.2136,-1.2126,-1.2109,0,0]}]]